Flag for Iran Weather past 2 weeks in Mashhad, Iran

Now
46 °F

Fog.


Feels Like: 42 °F
Forecast: 43 / 67 °F
Wind: 9 mph from South

Location: Mashhad Airport

Current Time: Apr 2, 2015 at 2:07:27 AM

Latest Report: Apr 2, 2015 at 1:30 AM


Visibility: 3 mi

Pressure: 29.92 "Hg

Humidity: 93%

Dew point: 45 °F

Location of MashhadLocation

Historic Weather in Mashhad — Graph

°F

Mashhad temperature yesterday

Maximum temperature yesterday: 63 °F (at 3:00 PM)
Minimum temperature yesterday: 41 °F (at 5:00 AM)
Average temperature yesterday: 49 °F

Past Weeks' High & Low Weather Summary

 TemperatureHumidityPressure
High79 °F (Mar 21, 2:00 PM)100% (Mar 20, 1:00 AM)30.33 "Hg (Mar 20, 1:00 AM)
Low28 °F (Mar 31, 1:00 AM)21% (Mar 21, 3:30 PM)29.62 "Hg (Mar 23, 4:00 PM)
Average50 °F69%30.08 "Hg
* Reported Mar 17 11:30 PM — Apr 2 1:00 AM, Mashhad, Weather by CustomWeather, © 2015

Note: Actual official high and low records may vary slightly from our data, if they occured in-between our weather recording intervals... More about our weather records

Advertising

Mashhad weather history for previous 24 hours

 ConditionsComfort  
Time TempWeatherWind HumidityBarometerVisibility
1:00 AM
Thu, Apr 2
46 °FFog.7 mph93%29.92 "Hg3 mi
12:30 AM45 °FPartly cloudy.7 mph100%29.92 "Hg4 mi
12:00 AM46 °FPartly cloudy.12 mph100%29.92 "Hg4 mi
11:30 PM
Wed, Apr 1
46 °FPartly cloudy.12 mph100%29.95 "Hg4 mi
11:00 PM48 °FPartly cloudy.9 mph94%29.95 "Hg4 mi
10:30 PM48 °FPartly cloudy.14 mph94%29.95 "Hg5 mi
9:55 PM48 °FPartly cloudy.12 mph94%29.95 "Hg5 mi
9:30 PM50 °FPassing clouds.12 mph88%29.92 "Hg5 mi
9:00 PM50 °FPassing clouds.7 mph88%29.92 "HgN/A
8:30 PM50 °FClear.12 mph88%29.92 "Hg10 mi
7:55 PM52 °FSunny.9 mph82%29.89 "Hg10 mi
7:30 PM54 °FSunny.14 mph72%29.89 "Hg10 mi
7:00 PM54 °FPartly sunny.12 mph72%29.89 "HgN/A
6:20 PM57 °FPartly sunny.12 mph63%29.86 "HgN/A
5:30 PM61 °FScattered clouds.9 mph55%29.86 "HgN/A
4:30 PM63 °FPassing clouds.7 mph56%29.86 "HgN/A
4:00 PM63 °FPassing clouds.5 mph52%29.86 "HgN/A
3:30 PM61 °FPassing clouds.7 mph59%29.86 "HgN/A
3:00 PM63 °FPassing clouds.7 mph56%29.86 "HgN/A
2:30 PM59 °FPassing clouds.5 mph59%29.86 "HgN/A
1:30 PM57 °FPassing clouds.9 mph67%29.89 "HgN/A
12:30 PM57 °FScattered clouds.9 mph63%29.92 "HgN/A
12:00 PM55 °FPartly sunny.5 mph67%29.92 "HgN/A
11:30 AM55 °FPartly sunny.5 mph67%29.92 "HgN/A
11:00 AM52 °FPartly sunny.7 mph82%29.95 "HgN/A
10:30 AM52 °FPartly sunny.5 mph77%29.95 "HgN/A
9:59 AM50 °FScattered clouds.7 mph82%29.95 "HgN/A
9:30 AM50 °FScattered clouds.7 mph82%29.95 "Hg5 mi
8:59 AM48 °FScattered clouds.5 mph87%29.95 "Hg4 mi
8:30 AM45 °FFog.5 mph93%29.92 "Hg1 mi
8:00 AM45 °FFog.5 mph93%29.92 "Hg1 mi
7:30 AM45 °FFog.7 mph87%29.92 "Hg2 mi
7:00 AM43 °FFog.5 mph93%29.92 "Hg3 mi
6:30 AM43 °FFog.No wind93%29.89 "Hg2 mi
6:00 AM41 °FFog.No wind93%29.89 "Hg2 mi
5:30 AM41 °FFog.5 mph93%29.89 "Hg2 mi
5:00 AM41 °FFog.7 mph100%29.89 "Hg2 mi
4:30 AM43 °FFog.7 mph93%29.89 "Hg2 mi
4:00 AM43 °FFog.7 mph93%29.89 "Hg3 mi
3:30 AM43 °FPassing clouds.7 mph100%29.89 "Hg4 mi
3:00 AM43 °FPassing clouds.7 mph93%29.89 "Hg4 mi
2:30 AM43 °FDrizzle. Low clouds.5 mph100%29.89 "Hg4 mi
2:00 AM43 °FDrizzle. Low clouds.5 mph100%29.89 "Hg5 mi
Weather by CustomWeather, © 2015

See weather overviewHow to use our weather pages